Dati Storici

Data ora Umidita' aria (%) Temperatura aria (°C) Rad globale (W/m²) Gonioanemometro (°) Tacoanemometro (m/s) Pioggia (mm)
23-06-2020 19:30 56 % 27.435 66.897 1.252 0 0
23-06-2020 19:20 50.8 % 27.947 47.932 -0.025 0 0
23-06-2020 19:10 48.8 % 28.23 139.942 1.145 0 0
23-06-2020 19:00 47 % 28.46 75.293 0.864 0 0
23-06-2020 18:50 46.1 % 28.768 103.043 1.556 0 0
23-06-2020 18:40 45.9 % 28.698 165.493 2.214 0 0
23-06-2020 18:30 46 % 28.865 71.723 0.711 0 0
23-06-2020 18:20 46.2 % 28.95 76.244 1.936 0 0
23-06-2020 18:10 45.2 % 28.798 88.228 1.685 0 0
23-06-2020 18:00 45.8 % 28.852 58.503 0.822 0 0
23-06-2020 17:50 44.5 % 29.192 88.917 0.913 0 0
23-06-2020 17:40 45.5 % 29.386 101.019 0.611 0 0
23-06-2020 17:30 42.1 % 29.397 129.645 3.774 0 0
23-06-2020 17:20 40 % 29.259 133.203 2.31 0 0
23-06-2020 17:10 35.7 % 29.576 32.692 3.589 0 0
23-06-2020 17:00 36.2 % 29.617 102.047 2.518 0 0
23-06-2020 16:50 41.7 % 29.788 84.333 2.146 0 0
23-06-2020 16:40 38 % 29.656 139.13 1.324 0 0
23-06-2020 16:30 40.6 % 30.087 30.827 2.707 0 0
23-06-2020 16:20 42.2 % 29.665 88.238 1.256 0 0

I dati sono presentati in modo automatico a scopo informativo. In seguito a verifica i dati possono subire modifiche o essere invalidati e non riportati negli archivi definitivi.